Location: Unspecified
(48.7670°N, 0.0000°E)
Time: 16:53:14
(UTC+00:00)

S-56A Canister/Altair - Pass Details

Date: 28 October 2019
Orbit: 634 x 2498 km, 38.9° (Epoch: 13 November)

Event Time Altitude Azimuth Distance (km) Brightness Sun altitude
Exits shadow 02:03:34 13° 113° (ESE) 2,798 10.6 -44.1°
Drops below altitude 10° 02:04:22 10° 110° (ESE) 3,070 10.8 -44.0°
Sets 02:08:03 0° 102° (ESE) 4,359 11.8 -43.5°
